When you browse on this site, cookies collect data to enhance your experience and personalize the content and advertising you see.
Visit our Privacy Policy to learn more. By continuing to use the site, you agree to this use of cookies and data.
  • In Belgien
  • Länderverzeichnis
  • Für 7 Tage
  • Wassertemperatur
  • Wetterkarte
  • Widgets
  • user-avatar
    Anmelden

    Stündliche Wetter Pyavochnoe

    Heute, 25 Februar, Dienstag

    Zeit Temperatur Niederschläge Wind Luftdruck Luftfeuchtigkeit
    00:00 -4°C° 0 mm 4 m/S 730 mmHg 89%
    01:00 -5°C° 0 mm 5 m/S 730 mmHg 89%
    02:00 -5°C° 0 mm 5 m/S 730 mmHg 90%
    03:00 -5°C° 0 mm 5 m/S 731 mmHg 89%
    04:00 -6°C° 0 mm 6 m/S 731 mmHg 88%
    05:00 -6°C° 0 mm 6 m/S 732 mmHg 87%
    06:00 -6°C° 0 mm 6 m/S 732 mmHg 87%
    07:00 -6°C° 0 mm 6 m/S 732 mmHg 87%
    08:00 -6°C° 0 mm 6 m/S 733 mmHg 88%
    09:00 -6°C° 0 mm 5 m/S 733 mmHg 86%
    10:00 -5°C° 0 mm 5 m/S 734 mmHg 85%
    11:00 -4°C° 0 mm 5 m/S 734 mmHg 83%
    12:00 -2°C° 0 mm 5 m/S 734 mmHg 82%
    13:00 -2°C° 0 mm 4 m/S 735 mmHg 81%
    14:00 -2°C° 0 mm 4 m/S 735 mmHg 80%
    15:00 -3°C° 0 mm 4 m/S 735 mmHg 80%
    16:00 -4°C° 0 mm 3 m/S 735 mmHg 80%
    17:00 -5°C° 0 mm 3 m/S 735 mmHg 80%
    18:00 -5°C° 0 mm 3 m/S 735 mmHg 81%
    19:00 -6°C° 0 mm 3 m/S 736 mmHg 82%
    20:00 -6°C° 0 mm 3 m/S 736 mmHg 83%
    21:00 -6°C° 0 mm 3 m/S 736 mmHg 86%
    22:00 -6°C° 0 mm 3 m/S 735 mmHg 89%
    23:00 -6°C° 0 mm 3 m/S 735 mmHg 92%

    Morgen, 26 Februar, Mittwoch

    Zeit Temperatur Niederschläge Wind Luftdruck Luftfeuchtigkeit
    00:00 -7°C° 0 mm 3 m/S 735 mmHg 92%
    01:00 -7°C° 0 mm 3 m/S 735 mmHg 92%
    02:00 -7°C° 0 mm 3 m/S 735 mmHg 92%
    03:00 -7°C° 0 mm 4 m/S 734 mmHg 92%
    04:00 -7°C° 0 mm 4 m/S 734 mmHg 92%
    05:00 -7°C° 0 mm 5 m/S 733 mmHg 92%
    06:00 -6°C° 0 mm 5 m/S 733 mmHg 92%
    07:00 -6°C° 0 mm 5 m/S 732 mmHg 93%
    08:00 -5°C° 0 mm 5 m/S 732 mmHg 93%
    09:00 -4°C° 0.2 mm 5 m/S 732 mmHg 95%
    10:00 -4°C° 0.2 mm 6 m/S 732 mmHg 97%
    11:00 -3°C° 0.2 mm 6 m/S 731 mmHg 99%
    12:00 -2°C° 0.2 mm 6 m/S 731 mmHg 99%
    13:00 -2°C° 0.2 mm 6 m/S 731 mmHg 99%
    14:00 -2°C° 0.2 mm 6 m/S 730 mmHg 99%
    15:00 -2°C° 0.1 mm 6 m/S 730 mmHg 99%
    16:00 -2°C° 0.1 mm 6 m/S 730 mmHg 98%
    17:00 -2°C° 0.1 mm 6 m/S 730 mmHg 97%
    18:00 -1°C° 0.1 mm 5 m/S 730 mmHg 97%
    19:00 0°C° 0.1 mm 5 m/S 730 mmHg 97%
    20:00 0°C° 0.1 mm 5 m/S 730 mmHg 97%
    21:00 0°C° 0.3 mm 5 m/S 729 mmHg 97%
    22:00 -1°C° 0.3 mm 4 m/S 729 mmHg 97%
    23:00 -1°C° 0.3 mm 4 m/S 729 mmHg 97%

    übermorgen, 27 Februar, Donnerstag

    Zeit Temperatur Niederschläge Wind Luftdruck Luftfeuchtigkeit
    00:00 -1°C° 0.1 mm 4 m/S 729 mmHg 96%
    01:00 -1°C° 0.1 mm 4 m/S 728 mmHg 95%
    02:00 -1°C° 0.1 mm 4 m/S 728 mmHg 94%
    03:00 -1°C° 0 mm 4 m/S 728 mmHg 95%
    04:00 -1°C° 0 mm 5 m/S 728 mmHg 95%
    05:00 -1°C° 0 mm 5 m/S 727 mmHg 95%
    06:00 -1°C° 0 mm 5 m/S 727 mmHg 97%
    07:00 -1°C° 0 mm 5 m/S 727 mmHg 98%
    08:00 -1°C° 0 mm 5 m/S 727 mmHg 99%
    09:00 -1°C° 0 mm 5 m/S 727 mmHg 99%
    10:00 -1°C° 0 mm 5 m/S 727 mmHg 99%
    11:00 0°C° 0 mm 5 m/S 727 mmHg 99%
    12:00 0°C° 0 mm 5 m/S 727 mmHg 99%
    13:00 0°C° 0 mm 5 m/S 727 mmHg 99%
    14:00 0°C° 0 mm 5 m/S 727 mmHg 99%
    15:00 0°C° 0.1 mm 4 m/S 727 mmHg 99%
    16:00 0°C° 0.1 mm 4 m/S 727 mmHg 99%
    17:00 0°C° 0.1 mm 4 m/S 727 mmHg 99%
    18:00 0°C° 0.2 mm 4 m/S 727 mmHg 98%
    19:00 +1°C° 0.2 mm 3 m/S 728 mmHg 98%
    20:00 +1°C° 0.2 mm 3 m/S 728 mmHg 98%
    21:00 0°C° 0 mm 3 m/S 728 mmHg 97%
    22:00 +1°C° 0 mm 2 m/S 728 mmHg 97%
    23:00 +1°C° 0 mm 2 m/S 729 mmHg 97%

    28 Februar, Freitag

    Zeit Temperatur Niederschläge Wind Luftdruck Luftfeuchtigkeit
    00:00 +1°C° 0 mm 2 m/S 728 mmHg 95%
    01:00 +1°C° 0 mm 1 m/S 728 mmHg 94%
    02:00 0°C° 0 mm 0 m/S 728 mmHg 93%
    03:00 +1°C° 0 mm 1 m/S 728 mmHg 93%
    04:00 +1°C° 0 mm 1 m/S 728 mmHg 93%
    05:00 -1°C° 0 mm 2 m/S 728 mmHg 93%
    06:00 -1°C° 0.4 mm 2 m/S 728 mmHg 94%
    07:00 -1°C° 0.4 mm 2 m/S 728 mmHg 95%
    08:00 -1°C° 0.4 mm 3 m/S 728 mmHg 97%
    09:00 -1°C° 0.6 mm 3 m/S 728 mmHg 97%
    10:00 -2°C° 0.6 mm 4 m/S 727 mmHg 98%
    11:00 -2°C° 0.6 mm 4 m/S 727 mmHg 98%
    12:00 -2°C° 0.3 mm 4 m/S 728 mmHg 96%
    13:00 -2°C° 0.3 mm 4 m/S 728 mmHg 93%
    14:00 -1°C° 0.3 mm 4 m/S 729 mmHg 91%
    15:00 -2°C° 0 mm 4 m/S 730 mmHg 89%
    16:00 -2°C° 0 mm 4 m/S 730 mmHg 87%
    17:00 -2°C° 0 mm 4 m/S 731 mmHg 85%
    18:00 -3°C° 0 mm 4 m/S 732 mmHg 83%
    19:00 -3°C° 0 mm 4 m/S 733 mmHg 82%
    20:00 -4°C° 0 mm 4 m/S 734 mmHg 80%
    21:00 -4°C° 0 mm 4 m/S 734 mmHg 81%
    22:00 -4°C° 0 mm 3 m/S 734 mmHg 82%
    23:00 -5°C° 0 mm 3 m/S 734 mmHg 83%

    29 Februar, Samstag

    Zeit Temperatur Niederschläge Wind Luftdruck Luftfeuchtigkeit
    00:00 -5°C° 0 mm 3 m/S 735 mmHg 83%
    01:00 -5°C° 0 mm 3 m/S 735 mmHg 84%
    02:00 -5°C° 0 mm 3 m/S 735 mmHg 84%
    03:00 -5°C° 0 mm 3 m/S 735 mmHg 85%
    04:00 -4°C° 0 mm 2 m/S 735 mmHg 86%
    05:00 -4°C° 0 mm 2 m/S 736 mmHg 86%
    06:00 -3°C° 0 mm 2 m/S 736 mmHg 87%
    07:00 -3°C° 0 mm 2 m/S 736 mmHg 87%
    08:00 -3°C° 0 mm 2 m/S 736 mmHg 87%
    09:00 -2°C° 0 mm 2 m/S 736 mmHg 87%
    10:00 -2°C° 0 mm 3 m/S 736 mmHg 86%
    11:00 -1°C° 0 mm 3 m/S 737 mmHg 86%
    12:00 -1°C° 0 mm 3 m/S 736 mmHg 87%
    13:00 -1°C° 0 mm 3 m/S 736 mmHg 89%
    14:00 -1°C° 0 mm 3 m/S 736 mmHg 91%
    15:00 -1°C° 0.1 mm 3 m/S 736 mmHg 93%
    16:00 -2°C° 0.1 mm 2 m/S 736 mmHg 95%
    17:00 -2°C° 0.1 mm 2 m/S 736 mmHg 96%
    18:00 -2°C° 0.7 mm 2 m/S 736 mmHg 97%
    19:00 -2°C° 0.7 mm 2 m/S 736 mmHg 97%
    20:00 -2°C° 0.7 mm 2 m/S 736 mmHg 97%
    21:00 -2°C° 0.2 mm 2 m/S 737 mmHg 96%
    22:00 -2°C° 0.2 mm 2 m/S 737 mmHg 95%
    23:00 -2°C° 0.2 mm 2 m/S 737 mmHg 93%

    1 März, Sonntag

    Zeit Temperatur Niederschläge Wind Luftdruck Luftfeuchtigkeit
    00:00 -2°C° 0.1 mm 2 m/S 737 mmHg 94%
    01:00 -2°C° 0.1 mm 2 m/S 737 mmHg 95%
    02:00 -2°C° 0.1 mm 2 m/S 737 mmHg 95%
    03:00 -3°C° 0.1 mm 2 m/S 737 mmHg 96%
    04:00 -3°C° 0.1 mm 2 m/S 737 mmHg 96%
    05:00 -3°C° 0.1 mm 2 m/S 737 mmHg 97%
    06:00 -3°C° 0.2 mm 2 m/S 737 mmHg 97%
    07:00 -2°C° 0.2 mm 2 m/S 738 mmHg 97%
    08:00 -2°C° 0.2 mm 2 m/S 738 mmHg 97%
    09:00 -2°C° 0.1 mm 2 m/S 738 mmHg 97%
    10:00 -1°C° 0.1 mm 2 m/S 738 mmHg 98%
    11:00 -1°C° 0.1 mm 2 m/S 739 mmHg 98%
    12:00 -1°C° 0 mm 2 m/S 739 mmHg 99%
    13:00 -1°C° 0 mm 2 m/S 739 mmHg 99%
    14:00 +1°C° 0 mm 1 m/S 739 mmHg 99%
    15:00 +1°C° 0 mm 1 m/S 739 mmHg 98%
    16:00 0°C° 0 mm 1 m/S 739 mmHg 97%
    17:00 0°C° 0 mm 1 m/S 740 mmHg 97%
    18:00 -1°C° 0 mm 1 m/S 740 mmHg 97%
    19:00 -1°C° 0 mm 1 m/S 740 mmHg 96%
    20:00 -1°C° 0 mm 1 m/S 740 mmHg 96%
    21:00 -1°C° 0 mm 1 m/S 740 mmHg 96%
    22:00 -1°C° 0 mm 1 m/S 740 mmHg 96%
    23:00 -3°C° 0 mm 2 m/S 740 mmHg 95%
    Mehr zeigen